170P/Christensen (2023)

Japanese version
Home page
Updated on April 18, 2021

---------------------------------------------------------------------

* Profile

* Orbital Elements

Epoch 2023 Apr. 6.0 TT = JDT 2460040.5
T 2023 Apr. 19.91235 TT                                 MPC
q   2.9238390            (2000.0)            P               Q
n   0.11409575     Peri.  225.39311     +0.98284637     -0.15095637
a   4.2100742      Node   142.90769     +0.17410379     +0.94894965
e   0.3055137      Incl.   10.11786     -0.06083486     +0.27695980
P   8.64
From 133 observations 2005 June 17-2014 July 3, mean residual 0".7.

* Magnitudes Graph

        m1 = 9.0 + 5 log d + 15.0 log r(t - 100)

---------------------------------------------------------------------

The orbital elements are published on M.P.E.C. 2014-N57.
The magnitudes graphs are made with Comet for Windows.

---------------------------------------------------------------------

Copyright(C) Seiichi Yoshida (comet@aerith.net). All rights reserved.